Location: Dos Palmas
(32.4468°N, 116.8732°W)
Time: 02:12:38
(UTC+00:00)

ASTRO E2 - Pass Details

Date: 20 June 2021
Orbit: 507 x 513 km, 31.4° (Epoch: 27 July)

Event Time Altitude Azimuth Distance (km) Brightness Sun altitude
Rises 04:59:02 0° 263° (W) 2,604 6.8 -20.9°
Reaches altitude 10° 05:01:16 10° 262° (W) 1,720 5.7 -21.2°
Enters shadow 05:04:57 71° 220° (SW) 539 2.6 -21.8°
